Facebook Twitter

Wetterstation Fritzlar

Messwerte
  Temperatur Wetter Niederschlag Luftdruck Wind
So, 04:20 Uhr 12 °C - - 1019 hPa 5 km/h W
So, 04:00 Uhr 12.6 °C - 0.0 mm 1019.8 hPa 7 km/h NW
So, 03:20 Uhr 12 °C - - 1019 hPa 3 km/h
So, 03:00 Uhr 13.1 °C - 0.0 mm 1019.8 hPa 7 km/h W
So, 02:20 Uhr 13 °C - - 1019 hPa 5 km/h W
So, 02:00 Uhr 13.8 °C - 0.0 mm 1019.8 hPa 11 km/h NW
So, 01:20 Uhr 14 °C - - 1020 hPa 8 km/h W
So, 01:00 Uhr 14.0 °C - 0.0 mm 1019.9 hPa 7 km/h W
So, 00:20 Uhr 15 °C - - 1020 hPa 3 km/h NW
So, 00:00 Uhr 15.5 °C - 0.0 mm 1019.9 hPa 4 km/h NW
Sa, 23:20 Uhr 16 °C - - 1020 hPa 5 km/h
Sa, 23:00 Uhr 19.5 °C - 0.0 mm 1019.5 hPa 4 km/h W
Sa, 22:20 Uhr 19 °C - - 1019 hPa 8 km/h O
Sa, 22:00 Uhr 21.1 °C - 0.0 mm 1018.9 hPa 14 km/h O
Sa, 21:20 Uhr 23 °C - - 1019 hPa 14 km/h O
Sa, 21:00 Uhr 23.5 °C - 0.0 mm 1018.3 hPa 4 km/h
Sa, 20:20 Uhr 25 °C - - 1018 hPa 10 km/h SO
Sa, 20:00 Uhr 26.3 °C - - 1017.8 hPa 11 km/h SO
Sa, 19:20 Uhr 27 °C - - 1018 hPa 14 km/h SO
Sa, 19:00 Uhr 27.5 °C - 0.0 mm 1017.7 hPa 14 km/h SO

Alle Zeitangaben MESZ